Regional Weather Roundup
Issued by NWS Green Bay, WI

Home | Current Version | Previous Version | Graphics & Text | Print | Product List | Glossary Off
Versions: 1 2 3 4 5 6 7 8 9 10 11 12 13 14 15 16 17 18 19 20 21 22 23 24 25 26 27 28 29 30 31 32 33 34 35 36 37 38 39 40 41 42 43 44 45 46 47 48 49 50

000
ASUS43 KGRB 230500
RWRGRB

NORTH-CENTRAL AND NORTHEAST WISCONSIN REGIONAL WEATHER ROUNDUP
NATIONAL WEATHER SERVICE GREEN BAY WI
1200 AM CDT MON APR 23 2018

WIZ005-009-010>012-018-019-230600-
NORTH CENTRAL WISCONSIN

CITY           SKY/WX    TMP DP  RH WIND       PRES   REMARKS
IRONWOOD       FAIR      37  26  64 CALM      30.25S
MANITOWISH WTR NOT AVBL
ARBOR VITAE    NOT AVBL
EAGLE RIVER    FAIR      32  21  63 CALM      30.27S
LAND O LAKES   FAIR      32  22  67 CALM      30.29R
RHINELANDER    FAIR      38  19  46 S3        30.28S
PHILLIPS       FAIR      35  27  70 CALM      30.26S
ANTIGO         NOT AVBL
TOMAHAWK       NOT AVBL
MERRILL          N/A     31  21  67 NE3       30.29F
$$

WIZ013-073-230600-
NORTHEAST WISCONSIN

CITY           SKY/WX    TMP DP  RH WIND       PRES   REMARKS
IRON MOUNTAIN  FAIR      33  22  63 CALM      30.27F
MARINETTE      FAIR      34  27  75 CALM      30.32S
$$

WIZ017-030-035>037-045-230600-
CENTRAL WISCONSIN

CITY           SKY/WX    TMP DP  RH WIND       PRES   REMARKS
MEDFORD        NOT AVBL
WAUSAU         FAIR      36  20  52 CALM      30.27S
MOSINEE        NOT AVBL
MARSHFIELD     FAIR      43  21  41 CALM      30.26F
WISC RAPIDS    FAIR      39  23  52 CALM      30.29S
STEVENS POINT  NOT AVBL
WAUPACA        FAIR      36  31  82 CALM      30.29S
SHAWANO        FAIR      35  28  73 CALM      30.30S
CLINTONVILLE   FAIR      33  26  74 CALM      30.29F
WAUTOMA        FAIR      33  27  78 CALM      30.28F
$$

WIZ038-039-048-051-230600-
FOX VALLEY

CITY           SKY/WX    TMP DP  RH WIND       PRES   REMARKS
NWS GREEN BAY  FAIR      38  31  76 CALM      30.30F
APPLETON       NOT AVBL
OSHKOSH        FAIR      42  30  62 CALM      30.28F
FOND DU LAC    FAIR      41  27  57 E5        30.28F
$$

WIZ022-050-052-230600-
EAST CENTRAL WISCONSIN

CITY           SKY/WX    TMP DP  RH WIND       PRES   REMARKS
EPHRAIM        NOT AVBL
WASHINGTON ISL NOT AVBL
STURGEON BAY   NOT AVBL
MANITOWOC      FAIR      36  31  82 CALM      30.31F
SHEBOYGAN      FAIR      37  26  64 N6        30.29F
$$

LMZ563-521-522-541>543-230600-
LAKESHORE

STATION/POSITION TIME  TEMP    WIND        PRES    VSBY  WAVE
                       AIR SEA DIR/SP/G                  HT/PER
                 (UTC) (F)     (DEG/KT/KT) (MB)    (MI)  (FT/S)
SHEBOYGAN LKSHOR 0400   42     340/  5/  6 1026.5F
KEWAUNEE LKSHORE 0430   34     300/  2/  3 1025.6F
NORTHPORT PIER   0440   38                 1026.4S
SISTER BAY LKSHO 0427   39     120/  3/  5   N/A
MENOMINEE LKSHOR 0430   38      60/  2/  2 1025.9F
$$




USA.gov is the U.S. government's official web portal to all federal, state and local government web resources and services.